MOLNIYA 1-62

Last updated on Jan. 25, 2020, 4:43 a.m. UTC

1 15214U 84089A   20024.31359372 -.00000426  00000-0 -10543-1 0  9991
2 15214  62.7275 152.7206 7217987 264.2943  17.2423  1.97933791226938
UTC
Height (km)
Latitude
Longitude
Inclination
Orbital Period
UTC large
Height (km)
Speed (km/s)
/
Latitude / Longitude
Inclination (degrees)
Orbital Period (minutes)
Azimuth
Elevation
Range (km)
Doppler Factor
iOS Compass Heading
iOS Angle

Next 30 passes for location: Hong Kong

Rise time Rise Azimuth (degrees) Set time Set Azimuth (degrees) Duration Max altitude (degrees)

No matching passes for this satellites